カタログに戻る

NAVSTAR 63

USA 203

運用中ナビゲーションHEO
NORAD 34661·PAYLOAD·🇺🇸 United States

打ち上げ Mar 24, 2009 から Cape Canaveral Space Force Station

Loading…

次のパス (今後24時間)

TLE

最新Source: Space-Track

元期: Sep 14, 2026, 13:03 UTC

1 34661U 09014A   26257.54411742  .00000016  00000-0  00000-0 0  9991
2 34661  54.4717 207.0745 0146314  61.6261 117.7774  2.00570113128077

AllMySatでNAVSTAR 63をリアルタイム追跡

Download on the App Store